Location: Pradons
(44.4746°N, 4.3578°E)
Time: 18:50:30
(UTC+00:00)

Cosmos 1703 - Pass Details

Date: 15 August 2020
Orbit: 523 x 541 km, 82.5° (Epoch: 01 October)

Event Time Altitude Azimuth Distance (km) Brightness Sun altitude
Rises 02:46:23 0° 347° (NNW) 2,708 7.3 -18.8°
Reaches altitude 10° 02:48:35 10° 343° (NNW) 1,809 6.3 -18.5°
Maximum altitude 02:52:29 56° 265° (W) 643 3.3 -18.0°
Enters shadow 02:53:30 42° 213° (SSW) 779 3.6 -17.9°
